TimeHST,TemperatureF,Dew PointF,Humidity,Sea Level PressureIn,VisibilityMPH,Wind Direction,Wind SpeedMPH,Gust SpeedMPH,PrecipitationIn,Events,Conditions,WindDirDegrees,DateUTC
12:53 AM,66.0,55.0,68,30.08,10.0,WSW,8.1,-,N/A,,Scattered Clouds,240,2013-05-03 10:53:00
1:53 AM,66.0,55.0,68,30.07,10.0,WSW,10.4,-,0.00,Rain,Light Rain,240,2013-05-03 11:53:00
2:53 AM,66.9,54.0,63,30.06,10.0,SSW,6.9,-,0.00,,Overcast,210,2013-05-03 12:53:00
3:53 AM,66.0,59.0,78,30.05,10.0,SSW,5.8,-,0.00,,Overcast,200,2013-05-03 13:53:00
4:53 AM,66.0,59.0,78,30.06,10.0,SW,8.1,-,N/A,,Scattered Clouds,230,2013-05-03 14:53:00
5:53 AM,66.0,57.9,75,30.07,10.0,SW,8.1,-,N/A,,Scattered Clouds,230,2013-05-03 15:53:00
6:53 AM,69.1,59.0,70,30.09,10.0,SW,5.8,-,N/A,,Scattered Clouds,230,2013-05-03 16:53:00
7:53 AM,75.0,60.1,60,30.10,10.0,SSW,3.5,-,N/A,,Partly Cloudy,210,2013-05-03 17:53:00
8:53 AM,78.1,61.0,56,30.10,10.0,ESE,4.6,-,N/A,,Scattered Clouds,110,2013-05-03 18:53:00
9:53 AM,77.0,64.0,64,30.10,10.0,East,18.4,-,N/A,,Mostly Cloudy,90,2013-05-03 19:53:00
10:53 AM,77.0,60.1,56,30.09,10.0,SSE,6.9,-,N/A,,Mostly Cloudy,160,2013-05-03 20:53:00
11:53 AM,176.0,50.0,4,30.06,-9999.0,North,-9999.0,-,0.00,,Unknown,0,2013-05-03 21:53:00
12:53 PM,82.9,61.0,47,30.04,10.0,ENE,10.4,-,0.00,,Partly Cloudy,60,2013-05-03 22:53:00
1:53 PM,81.0,60.1,49,30.01,10.0,East,11.5,-,N/A,,Clear,90,2013-05-03 23:53:00
2:53 PM,81.0,60.1,49,29.99,10.0,East,8.1,-,N/A,,Clear,100,2013-05-04 00:53:00
3:53 PM,79.0,61.0,54,30.00,10.0,East,11.5,-,N/A,,Scattered Clouds,90,2013-05-04 01:53:00
4:53 PM,78.1,63.0,60,30.01,10.0,Variable,6.9,-,N/A,,Partly Cloudy,0,2013-05-04 02:53:00
5:53 PM,73.9,64.0,71,30.02,10.0,East,9.2,-,N/A,,Scattered Clouds,100,2013-05-04 03:53:00
6:53 PM,72.0,64.9,78,30.02,10.0,East,4.6,-,N/A,,Partly Cloudy,100,2013-05-04 04:53:00
7:53 PM,71.1,64.9,81,30.04,10.0,Calm,Calm,-,N/A,,Scattered Clouds,0,2013-05-04 05:53:00
8:53 PM,70.0,64.9,84,30.05,10.0,SSW,4.6,-,N/A,,Clear,200,2013-05-04 06:53:00
9:53 PM,70.0,64.9,84,30.06,10.0,SSW,4.6,-,N/A,,Mostly Cloudy,210,2013-05-04 07:53:00
10:53 PM,71.1,64.9,81,30.05,10.0,South,4.6,-,0.00,,Overcast,190,2013-05-04 08:53:00
11:53 PM,70.0,64.9,84,30.04,10.0,SSW,4.6,-,N/A,,Overcast,200,2013-05-04 09:53:00